Probability
0 0 0 0 0 0 0 0 0 0 0 0 0 0 0 0 0 0 0 0 0 0 0 0 0 0 0 0 0 0 0 0 0 0 0 0 0 0 0 0 0 0 0 0
0 0 0 0 0 0 0 0 0 0 0 0 0 0 0 0 0 0 0 0 0 0 0 0 0 0 0 0 0 0 0 0 0 0 0 0 0 0 0 0 0 0 0 0
0 0 0 0 0 0 0 0 0 0 0 0 0 0 0 0 0 0 0 0 0 0 0 0 0 0 0 0 0 0 0 0 0 0 0 0 0 0 0 0 0 0 0 0
0 0 0 0 0 0 0 0 0 0 0 0 0 0 0 0 0 0 0 0 0 0 0 0 0 0 0 0 0 0 0 0 0 0 0 0 0 0 0 0 0 0 0 0
0 0 0 0 0 0 0 0 0 0 0 0 0 0 0 0 0 0 0 0 0 0 0 0 0 0 0 0 0 0 0 0 0 0 0 0 0 0 0 0 0 0 0 0
0 0 0 0 0 0 0 0 0 0 0 0 0 0 0 0 0 0 0 0 0 0 0 0 0 0 0 0 0 0 0 0 0 0 0 0 0 0 0 0 0 0 0 0
0 0 0 0 0 0 0 0 0 0 0 0 0 0 0 0 0 0 0 0 0 0 0 0 0 0 0 0 0 0 0 0 0 0 0 0 0 0 0 0 0 0 0 0
0 0 0 0 0 0 0 0 0 0 0 0 0 0 0 0 0 0 0 0 0 0 0 0 0 0 0 0 0 0 0 0 0 0 0 0 0 0 0 0 0 0 0 0
0 0 0 0 0 0 0 0 0 0 0 0 0 0 0 0 0 0 0 0 0 0 0 0 0 0 0 0 0 0 0 0 0 0 0 0 0 0 0 0 0 0 0 0
0 0 0 0 0 0 0 0 0 0 0 0 0 0 0 0 0 0 0 0 0 0 0 0 0 0 0 0 0 0 0 0 0 0 0 0 0 0 0 0 0 0 0 0
0 0 0 0 0 0 0 0 0 0 0 0 0 0 0 0 0 0 0 0 0 0 0 0 0 0 0 0 0 0 0 0 0 0 0 0 0 0 0 0 0 0 0 0
0 0 0 0 0 0 0 0 0 0 0 0 0 0 0 0 0 0 0 0 0 0 0 0 0 0 0 0 0 0 0 0 0 0 0 0 0 0 0 0 0 0 0 0
0 0 0 0 0 0 0 0 0 0 0 0 0 0 0 0 0 0 0 0 0 0 0 0 0 0 0 0 0 0 0 0 0 0 0 0 0 0 0 0 0 0 0 0
0 0 0 0 0 0 0 0 0 0 0 0 0 0 0 0 0 0 0 0 0 0 0 0 0 0 0 0 0 0 0 0 0 0 0 0 0 0 0 0 0 0 0 0
0 0 0 0 0 0 0 0 0 0 0 0 0 0 0 0 0 0 0 0 0 0 0 0 0 0 0 0 0 0 0 0 0 0 0 0 0 0 0 0 0 0 0 0
0 0 0 0 0 0 0 0 0 0 0 0 0 0 0 0 0 0 0 0 0 0 0 0 0 0 0 0 0 0 0 0 0 0 0 0 0 0 0 0 0 0 0 0
0 0 0 0 0 0 0 0 0 0 0 0 0 0 0 0 0 0 0 0 0 0 0 0 0 0 0 0 0 0 0 0 0 0 0 0 0 0 0 0 0 0 0 0
0 0 0 0 0 0 0 0 0 0 0 0 0 0 0 0 0 0 0 0 0 0 0 0 0 0 0 0 0 0 0 0 0 0 0 0 0 0 0 0 0 0 0 0
0 0 0 0 0 0 0 0 0 0 0 0 0 0 0 0 0 0 0 0 0 0 0 0 0 0 0 0 0 0 0 0 0 0 0 0 0 0 0 0 0 0 0 0
0 0 0 0 0 0 0 0 0 0 0 0 0 0 0 0 0 0 0 0 0 0 0 0 0 0 0 0 0 0 0 0 0 0 0 0 0 0 0 0 0 0 0 0
0 0 0 0 0 0 0 0 0 0 0 0 0 0 0 0 0 0 0 0 0 0 0 0 0 0 0 0 0 0 0 0 0 0 0 0 0 0 0 0 0 0 0 0
0 0 0 0 0 0 0 0 0 0 0 0 0 0 0 0 0 0 0 0 0 0 0 0 0 0 0 0 0 0 0 0 0 0 0 0 0 0 0 0 0 0 0 0
0 0 0 0 0 0 0 0 0 0 0 0 0 0 0 0 0 0 0 0 0 0 0 0 0 0 0 0 0 0 0 0 0 0 0 0 0 0 0 0 0 0 0 0
0 0 0 0 0 0 0 0 0 0 0 0 0 0 0 0 0 0 0 0 0 0 0 0 0 0 0 0 0 0 0 0 0 0 0 0 0 0 0 0 0 0 0 0
0 0 0 0 0 0 0 0 0 0 0 0 0 0 0 0 0 0 0 0 0 0 0 0 0 0 0 0 0 0 0 0 0 0 0 0 0 0 0 0 0 0 0 0
0 0 0 0 0 0 0 0 0 0 0 0 0 0 0 0 0 0 0 0 0 0 0 0 0 0 0 0 0 0 0 0 0 0 0 0 0 0 0 0 0 0 0 0
Height
5881 5881 5879 5878 5876 5875 5874 5872 5871 5869 5866 5864 5861 5859 5857 5853 5850 5848 5845 5842 5838 5834 5829 5824 5818 5812 5806 5799 5791 5783 5774 5764 5755 5745 5734 5722 5710 5696 5682 5666 5648 5629 5607 5584
5880 5879 5877 5876 5875 5874 5873 5871 5869 5868 5865 5862 5860 5857 5855 5852 5849 5846 5843 5839 5835 5831 5826 5821 5814 5808 5801 5794 5785 5776 5766 5756 5746 5735 5724 5711 5698 5684 5668 5651 5633 5612 5589 5566
5877 5877 5875 5874 5873 5872 5871 5870 5868 5866 5863 5861 5859 5856 5853 5850 5847 5844 5841 5836 5832 5827 5822 5816 5810 5803 5796 5787 5779 5769 5758 5747 5736 5725 5713 5700 5686 5671 5655 5637 5617 5596 5573 5550
5875 5874 5873 5872 5871 5871 5869 5868 5866 5864 5862 5860 5859 5856 5852 5848 5845 5842 5838 5834 5829 5824 5818 5812 5805 5798 5790 5781 5772 5761 5750 5739 5727 5715 5702 5688 5674 5659 5642 5624 5604 5582 5559 5536
5872 5871 5871 5870 5869 5868 5867 5866 5864 5862 5860 5858 5856 5853 5851 5846 5844 5840 5836 5831 5826 5820 5814 5808 5800 5792 5784 5775 5765 5754 5742 5730 5717 5705 5691 5677 5662 5647 5630 5612 5591 5569 5546 5525
5869 5868 5868 5867 5867 5866 5865 5864 5862 5860 5858 5857 5853 5850 5847 5844 5840 5836 5832 5827 5822 5817 5810 5803 5795 5787 5777 5768 5757 5746 5734 5722 5708 5695 5681 5667 5652 5636 5619 5600 5580 5558 5536 5515
5866 5866 5865 5864 5864 5863 5862 5862 5860 5858 5856 5854 5850 5847 5845 5841 5837 5832 5828 5823 5818 5812 5805 5798 5790 5781 5771 5761 5750 5739 5726 5714 5700 5686 5672 5657 5642 5626 5608 5590 5569 5548 5527 5507
5863 5863 5862 5861 5861 5860 5859 5858 5858 5856 5853 5850 5847 5845 5843 5838 5834 5829 5824 5818 5812 5806 5800 5792 5784 5775 5765 5755 5744 5732 5719 5706 5692 5678 5663 5648 5633 5616 5599 5580 5560 5539 5518 5499
5858 5859 5858 5857 5856 5856 5855 5854 5853 5851 5848 5846 5844 5841 5839 5834 5830 5825 5820 5814 5808 5802 5795 5787 5778 5769 5759 5749 5737 5725 5712 5699 5685 5670 5655 5639 5624 5607 5590 5571 5551 5530 5510 5492
5854 5854 5853 5852 5852 5852 5852 5850 5849 5846 5844 5842 5840 5836 5833 5829 5825 5820 5815 5809 5803 5797 5789 5781 5772 5763 5753 5743 5731 5719 5706 5692 5678 5663 5648 5632 5616 5599 5582 5564 5544 5524 5504 5485
5849 5848 5849 5848 5847 5847 5847 5845 5843 5841 5839 5837 5834 5834 5828 5823 5818 5813 5808 5802 5796 5790 5782 5775 5766 5757 5747 5737 5725 5713 5699 5686 5672 5657 5641 5625 5609 5593 5575 5557 5538 5518 5499 5480
5844 5843 5842 5843 5842 5840 5840 5840 5838 5837 5835 5831 5827 5829 5822 5818 5813 5808 5803 5797 5790 5784 5776 5769 5760 5751 5741 5730 5719 5707 5694 5680 5666 5651 5635 5619 5603 5586 5569 5551 5532 5513 5494 5476
5838 5837 5837 5836 5837 5836 5834 5834 5832 5830 5828 5825 5822 5823 5816 5811 5807 5802 5797 5792 5785 5778 5771 5763 5754 5745 5735 5725 5713 5701 5688 5674 5660 5645 5630 5614 5597 5581 5564 5546 5528 5509 5490 5473
5832 5831 5831 5830 5828 5828 5828 5827 5825 5822 5821 5818 5817 5815 5811 5804 5799 5794 5789 5784 5778 5771 5764 5756 5748 5739 5730 5719 5708 5696 5683 5669 5655 5640 5625 5609 5593 5576 5559 5542 5524 5505 5487 5470
5824 5825 5824 5822 5820 5819 5819 5820 5818 5815 5814 5811 5810 5807 5805 5798 5793 5789 5782 5777 5771 5764 5757 5749 5741 5733 5723 5713 5703 5691 5678 5664 5650 5636 5620 5604 5588 5572 5555 5538 5520 5502 5484 5468
5817 5817 5816 5816 5813 5809 5810 5812 5810 5808 5806 5803 5800 5799 5798 5790 5787 5782 5776 5770 5764 5758 5751 5743 5734 5726 5717 5707 5697 5686 5673 5660 5646 5631 5616 5600 5584 5568 5552 5535 5518 5500 5483 5467
5810 5809 5807 5807 5805 5801 5803 5806 5803 5800 5799 5796 5792 5792 5787 5782 5779 5775 5769 5763 5757 5751 5743 5736 5727 5719 5710 5701 5691 5680 5668 5655 5641 5627 5612 5596 5581 5565 5549 5533 5516 5499 5482 5466
5802 5800 5798 5796 5796 5793 5800 5797 5794 5791 5790 5787 5784 5781 5777 5773 5770 5766 5760 5754 5748 5742 5736 5728 5720 5712 5703 5695 5685 5674 5662 5650 5637 5623 5608 5593 5577 5562 5546 5531 5514 5498 5481 5466
5792 5791 5788 5786 5783 5783 5789 5788 5784 5780 5780 5779 5774 5771 5768 5763 5760 5757 5751 5745 5740 5734 5728 5720 5713 5704 5696 5687 5678 5668 5657 5645 5632 5618 5604 5590 5574 5559 5544 5529 5513 5497 5480 5465
5782 5780 5779 5776 5773 5772 5779 5777 5772 5770 5770 5768 5763 5760 5757 5752 5749 5747 5742 5736 5730 5725 5719 5712 5705 5696 5688 5680 5671 5662 5651 5640 5627 5614 5601 5586 5572 5557 5542 5527 5511 5496 5480 5464
5771 5770 5768 5766 5761 5761 5768 5764 5760 5760 5759 5755 5751 5748 5744 5741 5737 5734 5729 5725 5719 5714 5709 5703 5695 5688 5680 5672 5663 5655 5645 5634 5622 5610 5597 5583 5569 5555 5540 5525 5510 5495 5480 5464
5758 5758 5757 5755 5752 5756 5757 5753 5750 5748 5746 5743 5739 5735 5732 5728 5725 5721 5717 5713 5708 5703 5698 5692 5685 5679 5671 5663 5656 5648 5638 5628 5617 5606 5593 5580 5567 5552 5538 5523 5509 5494 5480 5465
5744 5746 5744 5743 5744 5745 5743 5741 5739 5735 5733 5730 5726 5723 5719 5716 5712 5709 5705 5700 5695 5691 5686 5680 5675 5668 5662 5654 5647 5640 5632 5622 5612 5601 5589 5576 5563 5550 5536 5522 5508 5494 5480 5465
5730 5730 5728 5728 5732 5732 5730 5728 5726 5722 5718 5717 5714 5711 5707 5703 5700 5696 5692 5687 5682 5678 5673 5668 5663 5658 5652 5645 5639 5632 5624 5615 5606 5596 5585 5573 5560 5548 5535 5521 5507 5494 5480 5466
5717 5714 5712 5712 5716 5715 5716 5714 5710 5707 5705 5704 5702 5698 5694 5690 5686 5683 5678 5674 5669 5664 5660 5655 5651 5646 5642 5636 5629 5623 5616 5608 5600 5590 5580 5569 5557 5545 5533 5520 5507 5494 5481 5467
5704 5700 5698 5697 5700 5694 5696 5698 5695 5691 5689 5688 5685 5683 5680 5675 5671 5668 5664 5660 5656 5651 5647 5642 5638 5634 5630 5625 5619 5613 5607 5601 5593 5584 5574 5564 5553 5542 5530 5518 5505 5492 5480 5467
Wind_Speed
9 7 6 5 6 7 9 9 9 10 10 11 12 13 14 16 18 19 21 23 25 27 30 32 35 38 41 44 46 48 49 51 53 55 58 62 65 68 72 77 83 89 94 94
9 7 6 6 6 7 8 8 8 8 9 11 12 13 14 16 18 20 22 24 26 29 31 34 38 41 43 46 48 50 51 52 54 56 59 63 66 69 73 79 84 91 93 92
9 8 6 6 6 7 7 7 7 7 8 9 11 12 13 16 18 20 23 25 28 31 34 37 40 43 46 49 52 54 54 55 56 58 61 64 67 70 75 80 86 91 92 88
10 9 8 8 8 8 8 7 7 7 7 8 9 10 12 15 18 20 23 26 29 33 36 40 42 45 48 51 54 57 58 59 59 60 63 66 69 72 76 81 87 90 89 84
10 10 10 9 9 9 8 7 7 7 7 8 9 10 12 14 17 20 23 26 29 33 37 41 44 47 50 53 56 59 62 63 63 63 65 67 70 73 77 82 87 89 86 81
12 12 12 11 10 10 10 9 8 8 8 8 10 12 13 16 18 20 23 26 29 33 37 41 46 49 52 55 58 61 64 66 67 67 67 69 71 74 77 82 87 88 84 78
14 14 14 13 12 12 11 11 10 9 9 9 10 12 14 16 18 21 24 27 30 34 38 42 47 51 54 57 60 63 66 69 70 70 70 71 73 75 78 83 86 86 82 76
16 15 15 15 15 14 13 13 12 12 11 11 11 12 14 16 19 22 25 29 33 36 39 43 48 52 55 58 61 64 67 70 73 73 72 73 74 76 79 83 86 85 81 75
19 17 17 17 17 16 16 15 15 15 14 14 14 15 15 17 20 23 27 30 34 37 41 44 49 53 56 60 62 65 68 71 74 75 75 74 75 76 79 83 85 84 79 74
21 20 18 19 20 19 19 18 18 17 17 18 17 19 20 21 24 26 29 32 35 39 43 46 50 53 57 61 64 66 69 72 75 77 77 76 76 77 79 82 84 83 78 73
22 23 20 21 21 22 22 21 21 21 21 22 22 21 23 24 27 29 33 36 39 42 45 48 51 54 57 61 64 67 69 72 75 78 78 77 76 77 79 82 84 82 78 72
24 24 23 22 24 25 25 24 24 24 24 24 26 24 26 27 28 30 33 37 40 43 47 49 52 55 58 61 64 67 69 72 75 78 79 78 77 77 79 81 83 82 77 72
25 26 26 25 26 27 27 26 27 28 28 27 28 26 29 30 31 33 35 37 41 44 48 51 53 55 58 60 64 67 69 72 74 78 80 79 78 77 78 80 82 81 76 71
28 28 27 28 29 28 29 30 31 32 31 31 30 28 29 34 35 37 40 41 44 47 50 53 55 56 58 60 63 66 68 71 74 77 80 80 78 77 78 80 81 80 75 70
30 29 29 29 31 33 33 33 34 35 34 35 33 33 31 35 37 39 42 44 46 49 51 54 56 57 58 60 62 65 68 70 73 76 79 80 79 77 77 79 80 79 75 69
33 32 31 31 33 37 36 33 35 36 36 36 37 36 34 39 39 41 44 46 48 50 52 54 56 58 59 60 61 64 67 69 72 74 77 80 79 77 77 78 79 78 74 69
34 35 35 34 35 39 37 33 35 38 37 38 40 39 40 42 43 43 46 48 49 51 52 55 57 59 59 59 61 63 66 68 71 73 76 79 79 77 76 77 78 78 75 69
36 36 38 39 38 41 35 34 36 39 40 40 42 42 44 46 46 46 48 50 51 52 53 56 58 59 59 59 60 62 65 68 70 72 74 77 79 77 76 75 76 77 75 69
38 38 40 41 42 43 36 34 37 41 42 42 44 45 47 49 49 48 50 51 53 53 55 56 58 59 59 59 59 61 63 67 69 71 73 75 77 77 75 74 75 76 74 70
40 41 42 44 46 47 40 37 39 41 42 42 46 47 49 50 51 51 52 53 54 55 55 57 58 59 59 58 58 59 62 65 68 70 71 73 76 76 75 73 73 74 74 70
44 44 45 45 48 49 42 40 41 41 41 44 46 48 50 52 54 54 54 55 56 56 56 57 58 58 57 57 57 58 61 64 67 69 70 71 73 75 74 72 72 72 73 70
49 49 48 47 50 48 42 42 40 40 41 43 47 49 52 53 54 55 56 56 57 57 56 56 56 56 56 56 56 57 60 63 66 68 68 69 71 73 73 71 70 71 71 69
55 53 52 53 52 48 46 44 41 41 43 45 48 51 53 55 55 56 56 57 57 57 56 55 55 54 55 56 56 57 59 62 65 66 67 67 69 71 71 70 68 68 69 68
60 58 59 58 55 52 50 47 45 45 48 49 51 52 54 56 56 56 57 58 58 58 58 57 55 55 55 55 56 57 59 61 64 65 66 66 66 68 69 68 66 66 67 67
62 64 64 63 59 57 54 53 53 54 53 53 54 55 56 58 58 58 58 59 59 60 60 59 58 57 56 56 57 57 59 61 63 64 64 64 64 66 67 66 65 64 65 67
62 64 66 66 63 65 62 58 58 59 59 58 59 59 59 60 61 61 61 61 62 62 62 63 62 61 59 58 58 59 59 61 62 63 63 63 62 63 65 65 63 62 63 65
Wind_Direction
317 315 315 324 330 332 333 335 341 345 347 352 356 359 1 360 359 358 357 355 354 354 353 351 348 346 344 341 337 333 329 326 325 325 326 327 327 327 327 327 327 327 327 328
311 305 306 313 316 318 321 327 338 348 350 356 1 3 5 7 5 3 1 359 358 357 356 354 352 350 348 346 343 340 335 332 330 329 330 330 330 329 329 329 329 330 331 331
305 297 294 296 298 303 306 319 334 345 352 359 3 5 5 8 6 3 1 359 357 355 353 352 351 350 349 348 347 345 342 338 335 334 333 333 333 332 331 331 331 333 334 333
299 289 283 283 285 289 297 308 322 334 343 350 358 4 6 7 4 1 359 358 356 354 352 351 350 349 349 349 348 348 346 343 340 337 336 336 335 334 334 334 334 335 336 336
293 282 277 275 275 280 288 296 306 318 327 336 345 355 1 1 1 359 358 357 356 355 353 352 351 350 349 349 349 349 349 347 344 341 339 338 338 337 336 336 337 338 339 338
289 280 274 269 268 273 280 284 289 300 315 318 335 346 349 354 355 357 358 357 357 357 355 353 352 351 350 350 349 349 349 349 346 344 342 341 340 339 338 338 339 341 341 340
286 278 270 266 264 266 271 276 283 287 296 310 328 336 340 346 348 351 354 356 357 356 355 354 353 352 351 350 350 350 350 349 348 346 344 343 341 340 340 340 342 344 344 343
287 277 269 263 260 262 264 268 272 281 294 306 315 321 329 337 343 346 349 351 353 354 354 353 353 352 351 350 350 350 350 350 349 348 346 344 343 342 341 342 344 346 346 345
288 281 270 263 258 257 259 261 269 276 286 294 302 309 318 328 336 341 344 347 348 349 351 352 351 351 351 350 350 349 350 350 350 349 347 346 344 343 343 344 346 348 348 347
286 281 271 263 258 255 256 260 265 273 281 287 296 306 316 323 328 334 339 342 343 345 347 349 349 349 349 349 349 349 349 350 350 350 348 347 346 344 344 345 348 349 349 349
283 280 272 264 258 254 255 259 264 271 279 287 294 304 310 318 324 329 333 336 338 341 343 345 346 347 347 348 348 348 349 349 350 350 349 348 347 345 345 347 349 351 351 350
281 278 273 265 259 255 256 258 264 270 277 284 292 303 306 313 319 323 327 330 334 336 339 341 343 344 345 346 347 348 348 349 349 350 350 349 348 346 346 348 350 352 353 352
278 277 274 268 261 259 257 258 262 269 275 282 290 301 304 309 314 317 321 325 328 332 334 337 339 341 342 344 345 346 347 348 349 350 350 350 348 347 347 348 351 353 354 353
277 276 274 272 269 263 258 258 262 269 275 281 289 295 301 304 310 314 318 322 325 328 331 333 335 338 339 341 343 345 346 347 348 349 350 350 349 348 348 349 352 354 355 355
276 275 273 270 269 266 261 259 263 269 276 282 289 291 298 298 304 309 313 317 320 324 327 329 331 334 337 339 341 343 345 346 347 349 350 350 349 348 348 350 352 355 356 356
277 277 273 270 269 268 267 265 266 269 275 281 285 289 294 293 300 305 308 311 316 319 322 325 328 331 334 336 338 341 343 345 347 348 349 350 350 349 349 350 352 355 357 357
277 278 276 273 270 270 272 271 267 270 274 278 283 288 287 291 296 301 303 307 311 315 319 322 325 328 331 333 336 338 341 343 345 347 348 349 350 349 349 350 352 355 358 358
275 276 277 277 275 273 277 274 270 270 272 277 281 284 286 290 294 298 301 304 308 312 316 319 322 324 327 330 333 336 339 342 344 346 347 349 349 349 349 350 352 355 358 359
273 275 276 277 277 277 278 277 275 273 274 277 280 283 286 289 292 295 298 301 305 309 312 316 319 321 324 328 331 334 337 340 342 344 346 348 349 349 349 350 352 355 357 359
271 273 274 276 277 279 282 282 280 278 278 279 280 282 285 288 291 293 295 298 302 306 309 313 316 319 322 325 329 332 335 338 341 343 345 347 348 348 348 349 351 354 357 359
269 270 271 274 277 279 285 286 285 284 284 283 283 284 285 287 290 293 295 297 300 304 307 310 313 316 320 323 326 329 332 335 338 341 343 345 347 348 348 348 350 353 356 359
270 270 271 273 274 279 283 283 285 285 284 284 283 284 285 287 289 291 294 297 299 302 305 308 311 314 317 320 323 327 329 333 336 339 341 344 346 347 347 348 349 352 355 359
269 271 271 271 273 277 278 280 282 282 281 280 281 283 285 287 289 292 294 297 299 301 304 306 308 311 314 317 320 323 327 330 333 336 339 342 344 346 346 347 348 351 354 358
270 271 271 272 274 274 275 277 278 278 277 278 280 281 283 285 287 290 292 295 297 299 302 304 306 308 311 313 316 320 323 326 330 333 337 339 342 344 345 345 347 350 353 357
270 271 272 274 275 275 275 275 275 275 276 278 279 280 282 283 285 287 289 291 293 296 298 300 302 304 307 309 312 315 319 322 326 330 334 337 339 342 343 344 346 348 351 355
271 272 274 275 276 276 276 276 277 277 278 278 279 280 281 282 283 284 286 287 289 290 293 295 297 300 302 305 307 310 314 318 322 326 330 334 337 340 342 342 344 346 349 353